Time,TemperatureF,DewpointF,PressureIn,WindDirection,WindDirectionDegrees,WindSpeedMPH,WindSpeedGustMPH,Humidity,HourlyPrecipIn,Conditions,Clouds,dailyrainin,SoftwareType,DateUTC
2013-08-24 00:02:00,69.3,50.9,29.87,SW,227,3.0,5.0,52,0.00,CLR,CLR,0.00,WeatherDisplay:10.34,2013-08-24 06:02:00,
2013-08-24 00:07:00,69.2,50.8,29.87,SW,225,7.0,8.0,52,0.00,CLR,CLR,0.00,WeatherDisplay:10.34,2013-08-24 06:07:00,
2013-08-24 00:12:00,69.2,50.8,29.87,WSW,238,6.0,9.0,52,0.00,CLR,CLR,0.00,WeatherDisplay:10.34,2013-08-24 06:12:00,
2013-08-24 00:17:00,69.1,50.7,29.87,WSW,241,5.0,5.0,52,0.00,CLR,CLR,0.00,WeatherDisplay:10.34,2013-08-24 06:17:00,
2013-08-24 00:22:00,69.1,50.7,29.87,SW,230,6.0,8.0,52,0.00,CLR,CLR,0.00,WeatherDisplay:10.34,2013-08-24 06:22:00,
2013-08-24 00:27:00,69.1,50.2,29.87,West,263,5.0,9.0,51,0.00,CLR,CLR,0.00,WeatherDisplay:10.34,2013-08-24 06:27:00,
2013-08-24 00:32:00,69.2,49.8,29.88,WSW,245,9.0,12.0,50,0.00,CLR,CLR,0.00,WeatherDisplay:10.34,2013-08-24 06:32:00,
2013-08-24 00:37:00,69.5,50.0,29.88,SW,230,9.0,9.0,50,0.00,CLR,CLR,0.00,WeatherDisplay:10.34,2013-08-24 06:37:00,
2013-08-24 00:42:00,69.6,50.7,29.88,SW,221,6.0,8.0,51,0.00,CLR,CLR,0.00,WeatherDisplay:10.34,2013-08-24 06:42:00,
2013-08-24 00:47:00,69.5,51.1,29.88,SW,223,7.0,9.0,52,0.00,CLR,CLR,0.00,WeatherDisplay:10.34,2013-08-24 06:47:00,
2013-08-24 00:52:00,69.2,51.8,29.88,SW,215,5.0,7.0,54,0.00,CLR,CLR,0.00,WeatherDisplay:10.34,2013-08-24 06:52:00,
2013-08-24 00:57:00,68.8,51.5,29.88,WSW,246,5.0,5.0,54,0.00,CLR,CLR,0.00,WeatherDisplay:10.34,2013-08-24 06:57:00,
2013-08-24 01:02:00,68.5,51.7,29.88,West,261,5.0,8.0,55,0.00,CLR,CLR,0.00,WeatherDisplay:10.34,2013-08-24 07:02:00,
2013-08-24 01:07:00,68.1,51.3,29.88,WSW,238,3.0,5.0,55,0.00,CLR,CLR,0.00,WeatherDisplay:10.34,2013-08-24 07:07:00,
2013-08-24 01:12:00,67.9,51.1,29.88,West,281,5.0,8.0,55,0.00,CLR,CLR,0.00,WeatherDisplay:10.34,2013-08-24 07:12:00,
2013-08-24 01:17:00,67.8,51.0,29.88,WSW,252,5.0,5.0,55,0.00,CLR,CLR,0.00,WeatherDisplay:10.34,2013-08-24 07:17:00,
2013-08-24 01:22:00,67.8,51.0,29.88,West,269,9.0,9.0,55,0.00,CLR,CLR,0.00,WeatherDisplay:10.34,2013-08-24 07:22:00,
2013-08-24 01:27:00,67.9,51.1,29.88,West,264,6.0,9.0,55,0.00,CLR,CLR,0.00,WeatherDisplay:10.34,2013-08-24 07:27:00,
2013-08-24 01:32:00,68.3,50.5,29.88,NW,310,7.0,8.0,53,0.00,CLR,CLR,0.00,WeatherDisplay:10.34,2013-08-24 07:32:00,
2013-08-24 01:37:00,68.6,50.8,29.88,West,281,5.0,8.0,53,0.00,CLR,CLR,0.00,WeatherDisplay:10.34,2013-08-24 07:37:00,
2013-08-24 01:42:00,68.7,50.9,29.87,NW,306,4.0,5.0,53,0.00,CLR,CLR,0.00,WeatherDisplay:10.34,2013-08-24 07:42:00,
2013-08-24 01:47:00,68.6,51.3,29.87,WNW,302,2.0,3.0,54,0.00,CLR,CLR,0.00,WeatherDisplay:10.34,2013-08-24 07:47:00,
2013-08-24 01:52:00,68.6,51.3,29.87,WNW,302,0.0,1.0,54,0.00,CLR,CLR,0.00,WeatherDisplay:10.34,2013-08-24 07:52:00,
2013-08-24 01:57:00,68.4,51.6,29.87,West,279,4.0,5.0,55,0.00,CLR,CLR,0.00,WeatherDisplay:10.34,2013-08-24 07:57:00,
2013-08-24 02:02:00,68.2,51.4,29.87,West,270,4.0,5.0,55,0.00,CLR,CLR,0.00,WeatherDisplay:10.34,2013-08-24 08:02:00,
2013-08-24 02:07:00,68.0,51.2,29.87,WSW,257,4.0,4.0,55,0.00,CLR,CLR,0.00,WeatherDisplay:10.34,2013-08-24 08:07:00,
2013-08-24 02:12:00,67.8,52.0,29.87,WSW,242,2.0,3.0,57,0.00,CLR,CLR,0.00,WeatherDisplay:10.34,2013-08-24 08:12:00,
2013-08-24 02:17:00,67.4,52.1,29.87,SW,230,4.0,4.0,58,0.00,CLR,CLR,0.00,WeatherDisplay:10.34,2013-08-24 08:17:00,
2013-08-24 02:22:00,67.1,51.4,29.87,SW,230,3.0,3.0,57,0.00,CLR,CLR,0.00,WeatherDisplay:10.34,2013-08-24 08:22:00,
2013-08-24 02:27:00,66.9,51.2,29.87,SW,230,2.0,3.0,57,0.00,CLR,CLR,0.00,WeatherDisplay:10.34,2013-08-24 08:27:00,
2013-08-24 02:32:00,66.7,51.5,29.87,SW,230,0.0,1.0,58,0.00,CLR,CLR,0.00,WeatherDisplay:10.34,2013-08-24 08:32:00,
2013-08-24 02:37:00,66.7,51.5,29.87,SW,231,0.0,0.0,58,0.00,CLR,CLR,0.00,WeatherDisplay:10.34,2013-08-24 08:37:00,
2013-08-24 02:42:00,66.5,51.3,29.87,SW,230,1.0,1.0,58,0.00,CLR,CLR,0.00,WeatherDisplay:10.34,2013-08-24 08:42:00,
2013-08-24 02:47:00,66.4,51.6,29.87,SE,146,3.0,3.0,59,0.00,CLR,CLR,0.00,WeatherDisplay:10.34,2013-08-24 08:47:00,
2013-08-24 02:52:00,66.3,51.1,29.87,SSE,150,3.0,3.0,58,0.00,CLR,CLR,0.00,WeatherDisplay:10.34,2013-08-24 08:52:00,
2013-08-24 02:57:00,66.5,50.8,29.87,South,176,4.0,4.0,57,0.00,CLR,CLR,0.00,WeatherDisplay:10.34,2013-08-24 08:57:00,
2013-08-24 03:02:00,66.6,50.9,29.87,South,178,2.0,2.0,57,0.00,CLR,CLR,0.00,WeatherDisplay:10.34,2013-08-24 09:02:00,
2013-08-24 03:07:00,66.7,49.0,29.87,WSW,237,4.0,5.0,53,0.00,CLR,CLR,0.00,WeatherDisplay:10.34,2013-08-24 09:07:00,
2013-08-24 03:12:00,67.0,49.3,29.88,SW,236,7.0,9.0,53,0.00,CLR,CLR,0.00,WeatherDisplay:10.34,2013-08-24 09:12:00,
2013-08-24 03:17:00,67.6,48.8,29.88,SW,225,17.0,17.0,51,0.00,CLR,CLR,0.00,WeatherDisplay:10.34,2013-08-24 09:17:00,
2013-08-24 03:22:00,68.2,49.4,29.88,SSW,213,13.0,13.0,51,0.00,CLR,CLR,0.00,WeatherDisplay:10.34,2013-08-24 09:22:00,
2013-08-24 03:27:00,68.3,49.5,29.89,SW,214,13.0,13.0,51,0.00,CLR,CLR,0.00,WeatherDisplay:10.34,2013-08-24 09:27:00,
2013-08-24 03:32:00,68.2,49.9,29.88,WSW,241,6.0,8.0,52,0.00,CLR,CLR,0.00,WeatherDisplay:10.34,2013-08-24 09:32:00,
2013-08-24 03:37:00,68.0,49.7,29.88,SSW,209,9.0,9.0,52,0.00,CLR,CLR,0.00,WeatherDisplay:10.34,2013-08-24 09:37:00,
2013-08-24 03:42:00,67.8,49.5,29.88,SW,217,11.0,11.0,52,0.00,CLR,CLR,0.00,WeatherDisplay:10.34,2013-08-24 09:42:00,
2013-08-24 03:47:00,67.6,49.3,29.88,SSW,202,11.0,11.0,52,0.00,CLR,CLR,0.00,WeatherDisplay:10.34,2013-08-24 09:47:00,
2013-08-24 03:52:00,67.5,49.3,29.88,SSW,204,11.0,12.0,52,0.00,CLR,CLR,0.00,WeatherDisplay:10.34,2013-08-24 09:52:00,
2013-08-24 03:57:00,67.5,49.8,29.88,SW,214,10.0,10.0,53,0.00,CLR,CLR,0.00,WeatherDisplay:10.34,2013-08-24 09:57:00,
2013-08-24 04:02:00,67.3,49.6,29.88,SSW,211,11.0,12.0,53,0.00,CLR,CLR,0.00,WeatherDisplay:10.34,2013-08-24 10:02:00,
2013-08-24 04:07:00,67.1,49.4,29.88,SW,214,10.0,10.0,53,0.00,CLR,CLR,0.00,WeatherDisplay:10.34,2013-08-24 10:07:00,
2013-08-24 04:12:00,67.0,49.3,29.88,SW,214,11.0,11.0,53,0.00,CLR,CLR,0.00,WeatherDisplay:10.34,2013-08-24 10:12:00,
2013-08-24 04:17:00,67.0,49.3,29.88,SW,232,2.0,2.0,53,0.00,CLR,CLR,0.00,WeatherDisplay:10.34,2013-08-24 10:17:00,
2013-08-24 04:22:00,67.1,49.4,29.88,SW,230,6.0,8.0,53,0.00,CLR,CLR,0.00,WeatherDisplay:10.34,2013-08-24 10:22:00,
2013-08-24 04:27:00,67.2,49.0,29.88,SW,232,3.0,5.0,52,0.00,CLR,CLR,0.00,WeatherDisplay:10.34,2013-08-24 10:27:00,
2013-08-24 04:32:00,67.3,49.1,29.88,WSW,237,5.0,7.0,52,0.00,CLR,CLR,0.00,WeatherDisplay:10.34,2013-08-24 10:32:00,
2013-08-24 04:37:00,67.4,49.2,29.88,WSW,243,8.0,10.0,52,0.00,CLR,CLR,0.00,WeatherDisplay:10.34,2013-08-24 10:37:00,
2013-08-24 04:42:00,67.6,48.8,29.88,WSW,242,9.0,9.0,51,0.00,CLR,CLR,0.00,WeatherDisplay:10.34,2013-08-24 10:42:00,
2013-08-24 04:47:00,67.8,49.0,29.88,WSW,244,5.0,9.0,51,0.00,CLR,CLR,0.00,WeatherDisplay:10.34,2013-08-24 10:47:00,
2013-08-24 04:52:00,67.9,49.1,29.88,SW,219,5.0,7.0,51,0.00,CLR,CLR,0.00,WeatherDisplay:10.34,2013-08-24 10:52:00,
2013-08-24 04:57:00,68.0,49.7,29.88,WSW,244,6.0,8.0,52,0.00,CLR,CLR,0.00,WeatherDisplay:10.34,2013-08-24 10:57:00,
2013-08-24 05:02:00,67.9,50.1,29.88,SW,236,8.0,10.0,53,0.00,CLR,CLR,0.00,WeatherDisplay:10.34,2013-08-24 11:02:00,
2013-08-24 05:07:00,67.8,50.5,29.88,SW,229,7.0,9.0,54,0.00,CLR,CLR,0.00,WeatherDisplay:10.34,2013-08-24 11:07:00,
2013-08-24 05:12:00,67.7,50.5,29.88,WSW,241,5.0,8.0,54,0.00,CLR,CLR,0.00,WeatherDisplay:10.34,2013-08-24 11:12:00,
2013-08-24 05:17:00,67.4,50.7,29.88,West,260,1.0,3.0,55,0.00,CLR,CLR,0.00,WeatherDisplay:10.34,2013-08-24 11:17:00,
2013-08-24 05:22:00,67.3,50.6,29.88,West,260,2.0,3.0,55,0.00,CLR,CLR,0.00,WeatherDisplay:10.34,2013-08-24 11:22:00,
2013-08-24 05:27:00,67.2,50.5,29.88,West,261,1.0,1.0,55,0.00,CLR,CLR,0.00,WeatherDisplay:10.34,2013-08-24 11:27:00,
2013-08-24 05:32:00,67.2,51.0,29.88,West,261,0.0,0.0,56,0.00,CLR,CLR,0.00,WeatherDisplay:10.34,2013-08-24 11:32:00,
2013-08-24 05:37:00,67.1,50.4,29.88,SW,227,4.0,4.0,55,0.00,CLR,CLR,0.00,WeatherDisplay:10.34,2013-08-24 11:37:00,
2013-08-24 05:42:00,67.1,50.9,29.88,SW,219,7.0,7.0,56,0.00,CLR,CLR,0.00,WeatherDisplay:10.34,2013-08-24 11:42:00,
2013-08-24 05:47:00,67.1,50.9,29.89,SSW,209,7.0,7.0,56,0.00,CLR,CLR,0.00,WeatherDisplay:10.34,2013-08-24 11:47:00,
2013-08-24 05:52:00,67.0,50.8,29.89,SSW,202,3.0,5.0,56,0.00,CLR,CLR,0.00,WeatherDisplay:10.34,2013-08-24 11:52:00,
2013-08-24 05:57:00,67.0,50.8,29.89,WSW,240,2.0,5.0,56,0.00,CLR,CLR,0.00,WeatherDisplay:10.34,2013-08-24 11:57:00,
2013-08-24 06:02:00,66.9,50.7,29.89,SW,235,4.0,5.0,56,0.00,OVC,OVC,0.00,WeatherDisplay:10.34,2013-08-24 12:02:00,
2013-08-24 06:07:00,67.0,50.8,29.89,SW,236,2.0,3.0,56,0.00,OVC,OVC,0.00,WeatherDisplay:10.34,2013-08-24 12:07:00,
2013-08-24 06:12:00,67.0,50.3,29.89,SW,236,2.0,3.0,55,0.00,OVC,OVC,0.00,WeatherDisplay:10.34,2013-08-24 12:12:00,
2013-08-24 06:17:00,67.2,50.5,29.89,West,267,0.0,0.0,55,0.00,OVC,OVC,0.00,WeatherDisplay:10.34,2013-08-24 12:17:00,
2013-08-24 06:22:00,67.3,50.6,29.89,West,267,1.0,2.0,55,0.00,OVC,OVC,0.00,WeatherDisplay:10.34,2013-08-24 12:22:00,
2013-08-24 06:27:00,67.4,50.7,29.89,NW,309,0.0,0.0,55,0.00,OVC,OVC,0.00,WeatherDisplay:10.34,2013-08-24 12:27:00,
2013-08-24 06:32:00,67.5,50.8,29.89,SW,226,4.0,4.0,55,0.00,OVC,OVC,0.00,WeatherDisplay:10.34,2013-08-24 12:32:00,
2013-08-24 06:37:00,67.3,51.1,29.89,SSW,198,11.0,12.0,56,0.00,OVC,OVC,0.00,WeatherDisplay:10.34,2013-08-24 12:37:00,
2013-08-24 06:42:00,66.7,51.0,29.90,SSW,213,9.0,10.0,57,0.00,OVC,OVC,0.00,WeatherDisplay:10.34,2013-08-24 12:42:00,
2013-08-24 06:47:00,66.5,50.8,29.90,SSW,213,5.0,5.0,57,0.00,OVC,OVC,0.00,WeatherDisplay:10.34,2013-08-24 12:47:00,
2013-08-24 06:52:00,66.3,51.1,29.90,SSW,213,3.0,5.0,58,0.00,OVC,OVC,0.00,WeatherDisplay:10.34,2013-08-24 12:52:00,
2013-08-24 06:57:00,66.2,51.0,29.90,SW,221,4.0,5.0,58,0.00,OVC,OVC,0.00,WeatherDisplay:10.34,2013-08-24 12:57:00,
2013-08-24 07:02:00,66.1,50.9,29.90,SW,215,3.0,3.0,58,0.00,OVC,OVC,0.00,WeatherDisplay:10.34,2013-08-24 13:02:00,
2013-08-24 07:07:00,66.0,51.7,29.90,SW,215,3.0,3.0,60,0.00,OVC,OVC,0.00,WeatherDisplay:10.34,2013-08-24 13:07:00,
2013-08-24 07:12:00,65.9,51.6,29.91,SW,215,3.0,3.0,60,0.00,BKN,BKN,0.00,WeatherDisplay:10.34,2013-08-24 13:12:00,
2013-08-24 07:17:00,65.7,51.4,29.91,SW,215,1.0,2.0,60,0.00,OVC,OVC,0.00,WeatherDisplay:10.34,2013-08-24 13:17:00,
2013-08-24 07:22:00,65.7,51.9,29.91,SW,215,3.0,3.0,61,0.00,BKN,BKN,0.00,WeatherDisplay:10.34,2013-08-24 13:22:00,
2013-08-24 07:27:00,65.6,52.2,29.91,SW,215,1.0,3.0,62,0.00,BKN,BKN,0.00,WeatherDisplay:10.34,2013-08-24 13:27:00,
2013-08-24 07:32:00,65.4,52.5,29.91,SW,221,4.0,4.0,63,0.00,BKN,BKN,0.00,WeatherDisplay:10.34,2013-08-24 13:32:00,
2013-08-24 07:37:00,65.4,52.9,29.91,SW,222,3.0,5.0,64,0.00,OVC,OVC,0.00,WeatherDisplay:10.34,2013-08-24 13:37:00,
2013-08-24 07:42:00,65.3,52.8,29.91,SW,222,3.0,3.0,64,0.00,OVC,OVC,0.00,WeatherDisplay:10.34,2013-08-24 13:42:00,
2013-08-24 07:47:00,65.3,52.8,29.91,SW,217,5.0,7.0,64,0.00,OVC,OVC,0.00,WeatherDisplay:10.34,2013-08-24 13:47:00,
2013-08-24 07:52:00,65.3,52.8,29.91,SW,218,5.0,7.0,64,0.00,OVC,OVC,0.00,WeatherDisplay:10.34,2013-08-24 13:52:00,
2013-08-24 07:57:00,65.3,52.8,29.91,SW,214,7.0,7.0,64,0.00,BKN,BKN,0.00,WeatherDisplay:10.34,2013-08-24 13:57:00,
2013-08-24 08:02:00,65.4,52.9,29.91,SW,214,5.0,5.0,64,0.00,BKN,BKN,0.00,WeatherDisplay:10.34,2013-08-24 14:02:00,
2013-08-24 08:07:00,65.6,53.5,29.91,SW,214,5.0,5.0,65,0.00,BKN,BKN,0.00,WeatherDisplay:10.34,2013-08-24 14:07:00,
2013-08-24 08:12:00,65.8,53.3,29.91,SW,214,3.0,3.0,64,0.00,BKN,BKN,0.00,WeatherDisplay:10.34,2013-08-24 14:12:00,
2013-08-24 08:17:00,65.9,53.8,29.91,SW,214,5.0,5.0,65,0.00,BKN,BKN,0.00,WeatherDisplay:10.34,2013-08-24 14:17:00,
2013-08-24 08:22:00,66.1,54.0,29.91,SW,214,5.0,5.0,65,0.00,BKN,BKN,0.00,WeatherDisplay:10.34,2013-08-24 14:22:00,
2013-08-24 08:27:00,66.4,54.3,29.91,SW,214,6.0,7.0,65,0.00,SCT,SCT,0.00,WeatherDisplay:10.34,2013-08-24 14:27:00,
2013-08-24 08:32:00,66.6,54.9,29.91,SW,214,4.0,5.0,66,0.00,SCT,SCT,0.00,WeatherDisplay:10.34,2013-08-24 14:32:00,
2013-08-24 08:37:00,66.7,55.0,29.91,SW,215,2.0,2.0,66,0.00,SCT,SCT,0.00,WeatherDisplay:10.34,2013-08-24 14:37:00,
2013-08-24 08:42:00,66.8,54.7,29.91,SW,215,0.0,1.0,65,0.00,SCT,SCT,0.00,WeatherDisplay:10.34,2013-08-24 14:42:00,
2013-08-24 08:47:00,67.0,54.8,29.91,SW,215,0.0,1.0,65,0.00,SCT,SCT,0.00,WeatherDisplay:10.34,2013-08-24 14:47:00,
2013-08-24 08:52:00,67.4,54.4,29.91,SW,215,1.0,2.0,63,0.00,SCT,SCT,0.00,WeatherDisplay:10.34,2013-08-24 14:52:00,
2013-08-24 08:57:00,68.0,55.4,29.91,SW,215,4.0,4.0,64,0.00,BKN,BKN,0.00,WeatherDisplay:10.34,2013-08-24 14:57:00,
2013-08-24 09:02:00,68.4,54.9,29.91,SW,215,4.0,4.0,62,0.00,BKN,BKN,0.00,WeatherDisplay:10.34,2013-08-24 15:02:00,
2013-08-24 09:07:00,68.8,55.2,29.91,SW,214,6.0,6.0,62,0.00,BKN,BKN,0.00,WeatherDisplay:10.34,2013-08-24 15:07:00,
2013-08-24 09:12:00,69.2,55.6,29.91,SW,217,6.0,7.0,62,0.00,OVC,OVC,0.00,WeatherDisplay:10.34,2013-08-24 15:12:00,
2013-08-24 09:17:00,69.3,56.2,29.91,SW,217,2.0,3.0,63,0.00,OVC,OVC,0.00,WeatherDisplay:10.34,2013-08-24 15:17:00,
2013-08-24 09:22:00,69.4,56.3,29.92,SW,217,3.0,5.0,63,0.00,OVC,OVC,0.00,WeatherDisplay:10.34,2013-08-24 15:22:00,
2013-08-24 09:27:00,69.6,54.2,29.92,South,182,5.0,7.0,58,0.00,BKN,BKN,0.00,WeatherDisplay:10.34,2013-08-24 15:27:00,
2013-08-24 09:32:00,69.9,55.4,29.92,SW,226,6.0,7.0,60,0.00,OVC,OVC,0.00,WeatherDisplay:10.34,2013-08-24 15:32:00,
2013-08-24 09:37:00,70.0,55.0,29.92,SW,219,5.0,5.0,59,0.00,OVC,OVC,0.00,WeatherDisplay:10.34,2013-08-24 15:37:00,
2013-08-24 09:42:00,70.1,53.2,29.92,SSW,205,4.0,4.0,55,0.00,OVC,OVC,0.00,WeatherDisplay:10.34,2013-08-24 15:42:00,
2013-08-24 09:47:00,70.4,54.4,29.92,SSW,203,4.0,7.0,57,0.00,OVC,OVC,0.00,WeatherDisplay:10.34,2013-08-24 15:47:00,
2013-08-24 09:52:00,70.7,53.7,29.92,SSW,196,5.0,5.0,55,0.00,OVC,OVC,0.00,WeatherDisplay:10.34,2013-08-24 15:52:00,
2013-08-24 09:57:00,70.9,54.9,29.92,SSW,194,5.0,7.0,57,0.00,OVC,OVC,0.00,WeatherDisplay:10.34,2013-08-24 15:57:00,
2013-08-24 10:02:00,71.3,53.3,29.92,SSE,157,6.0,6.0,53,0.00,OVC,OVC,0.00,WeatherDisplay:10.34,2013-08-24 16:02:00,
2013-08-24 10:07:00,71.7,54.7,29.92,South,172,5.0,5.0,55,0.00,BKN,BKN,0.00,WeatherDisplay:10.34,2013-08-24 16:07:00,
2013-08-24 10:12:00,72.2,53.1,29.92,South,172,2.0,2.0,51,0.00,CLR,CLR,0.00,WeatherDisplay:10.34,2013-08-24 16:12:00,
2013-08-24 10:17:00,73.4,52.5,29.92,SSE,155,4.0,5.0,48,0.00,CLR,CLR,0.00,WeatherDisplay:10.34,2013-08-24 16:17:00,
2013-08-24 10:22:00,74.6,53.0,29.91,ESE,120,5.0,7.0,47,0.00,CLR,CLR,0.00,WeatherDisplay:10.34,2013-08-24 16:22:00,
2013-08-24 10:27:00,75.5,53.9,29.91,East,96,4.0,4.0,47,0.00,CLR,CLR,0.00,WeatherDisplay:10.34,2013-08-24 16:27:00,
2013-08-24 10:32:00,76.4,52.9,29.92,SSE,155,4.0,5.0,44,0.00,CLR,CLR,0.00,WeatherDisplay:10.34,2013-08-24 16:32:00,
2013-08-24 10:37:00,77.3,53.1,29.92,ESE,102,5.0,7.0,43,0.00,CLR,CLR,0.00,WeatherDisplay:10.34,2013-08-24 16:37:00,
2013-08-24 10:42:00,77.9,52.3,29.92,SSW,192,8.0,9.0,41,0.00,CLR,CLR,0.00,WeatherDisplay:10.34,2013-08-24 16:42:00,
2013-08-24 10:47:00,78.1,51.8,29.92,SW,230,15.0,15.0,40,0.00,CLR,CLR,0.00,WeatherDisplay:10.34,2013-08-24 16:47:00,
2013-08-24 10:52:00,78.2,50.5,29.92,WSW,249,10.0,10.0,38,0.00,CLR,CLR,0.00,WeatherDisplay:10.34,2013-08-24 16:52:00,
2013-08-24 10:57:00,78.5,52.2,29.92,SSW,210,11.0,11.0,40,0.00,CLR,CLR,0.00,WeatherDisplay:10.34,2013-08-24 16:57:00,
2013-08-24 11:02:00,79.2,51.4,29.92,South,186,13.0,13.0,38,0.00,CLR,CLR,0.00,WeatherDisplay:10.34,2013-08-24 17:02:00,
2013-08-24 11:07:00,79.8,51.2,29.92,SSW,202,9.0,9.0,37,0.00,CLR,CLR,0.00,WeatherDisplay:10.34,2013-08-24 17:07:00,
2013-08-24 11:12:00,80.2,50.8,29.92,SSE,165,11.0,11.0,36,0.00,CLR,CLR,0.00,WeatherDisplay:10.34,2013-08-24 17:12:00,
2013-08-24 11:17:00,80.3,53.1,29.92,SW,232,7.0,8.0,39,0.00,CLR,CLR,0.00,WeatherDisplay:10.34,2013-08-24 17:17:00,
2013-08-24 11:22:00,80.8,52.1,29.92,SSW,205,7.0,8.0,37,0.00,CLR,CLR,0.00,WeatherDisplay:10.34,2013-08-24 17:22:00,
2013-08-24 11:27:00,81.5,52.0,29.92,SW,222,14.0,14.0,36,0.00,CLR,CLR,0.00,WeatherDisplay:10.34,2013-08-24 17:27:00,
2013-08-24 11:32:00,81.7,52.1,29.92,WSW,240,6.0,8.0,36,0.00,CLR,CLR,0.00,WeatherDisplay:10.34,2013-08-24 17:32:00,
2013-08-24 11:37:00,81.9,50.0,29.92,West,276,7.0,12.0,33,0.00,CLR,CLR,0.00,WeatherDisplay:10.34,2013-08-24 17:37:00,
2013-08-24 11:42:00,82.0,54.6,29.91,NNW,331,8.0,14.0,39,0.00,CLR,CLR,0.00,WeatherDisplay:10.34,2013-08-24 17:42:00,
2013-08-24 11:47:00,81.2,54.6,29.92,NNW,340,15.0,16.0,40,0.00,CLR,CLR,0.00,WeatherDisplay:10.34,2013-08-24 17:47:00,
2013-08-24 11:52:00,80.4,54.5,29.92,NE,45,8.0,9.0,41,0.00,CLR,CLR,0.00,WeatherDisplay:10.34,2013-08-24 17:52:00,
2013-08-24 11:57:00,80.3,55.1,29.92,ENE,61,16.0,16.0,42,0.00,CLR,CLR,0.00,WeatherDisplay:10.34,2013-08-24 17:57:00,
2013-08-24 12:02:00,80.7,51.3,29.91,ESE,103,14.0,16.0,36,0.00,CLR,CLR,0.00,WeatherDisplay:10.34,2013-08-24 18:02:00,
2013-08-24 12:07:00,81.4,51.1,29.91,ENE,69,8.0,9.0,35,0.00,CLR,CLR,0.00,WeatherDisplay:10.34,2013-08-24 18:07:00,
2013-08-24 12:12:00,82.1,52.5,29.92,ENE,71,5.0,7.0,36,0.00,CLR,CLR,0.00,WeatherDisplay:10.34,2013-08-24 18:12:00,
2013-08-24 12:17:00,82.5,51.3,29.92,ESE,112,4.0,4.0,34,0.00,FEW,FEW,0.00,WeatherDisplay:10.34,2013-08-24 18:17:00,
2013-08-24 12:22:00,82.9,54.7,29.91,NE,40,5.0,7.0,38,0.00,FEW,FEW,0.00,WeatherDisplay:10.34,2013-08-24 18:22:00,
2013-08-24 12:27:00,83.1,52.6,29.92,North,349,5.0,5.0,35,0.00,FEW,FEW,0.00,WeatherDisplay:10.34,2013-08-24 18:27:00,
2013-08-24 12:32:00,83.6,54.6,29.92,NNW,341,2.0,3.0,37,0.00,FEW,FEW,0.00,WeatherDisplay:10.34,2013-08-24 18:32:00,
2013-08-24 12:37:00,83.5,53.7,29.92,WNW,293,2.0,3.0,36,0.00,FEW,FEW,0.00,WeatherDisplay:10.34,2013-08-24 18:37:00,
2013-08-24 12:42:00,83.5,57.3,29.92,NNW,327,2.0,5.0,41,0.00,FEW,FEW,0.00,WeatherDisplay:10.34,2013-08-24 18:42:00,
2013-08-24 12:47:00,83.6,52.3,29.92,North,355,2.0,2.0,34,0.00,FEW,FEW,0.00,WeatherDisplay:10.34,2013-08-24 18:47:00,
2013-08-24 12:52:00,84.0,53.4,29.92,North,360,12.0,12.0,35,0.00,FEW,FEW,0.00,WeatherDisplay:10.34,2013-08-24 18:52:00,
2013-08-24 12:57:00,83.7,53.9,29.92,NNW,340,7.0,8.0,36,0.00,FEW,FEW,0.00,WeatherDisplay:10.34,2013-08-24 18:57:00,
2013-08-24 13:02:00,83.6,53.1,29.92,NW,325,9.0,10.0,35,0.00,FEW,FEW,0.00,WeatherDisplay:10.34,2013-08-24 19:02:00,
2013-08-24 13:07:00,83.4,52.9,29.92,NNW,336,6.0,7.0,35,0.00,FEW,FEW,0.00,WeatherDisplay:10.34,2013-08-24 19:07:00,
2013-08-24 13:12:00,84.1,53.5,29.91,NW,325,1.0,2.0,35,0.00,FEW,FEW,0.00,WeatherDisplay:10.34,2013-08-24 19:12:00,
2013-08-24 13:17:00,84.7,50.7,29.91,SSW,198,8.0,9.0,31,0.00,FEW,FEW,0.00,WeatherDisplay:10.34,2013-08-24 19:17:00,
2013-08-24 13:22:00,84.7,50.7,29.91,South,182,0.0,2.0,31,0.00,FEW,FEW,0.00,WeatherDisplay:10.34,2013-08-24 19:22:00,
2013-08-24 13:27:00,84.9,51.7,29.91,NE,48,8.0,8.0,32,0.00,FEW,FEW,0.00,WeatherDisplay:10.34,2013-08-24 19:27:00,
2013-08-24 13:32:00,84.7,51.6,29.91,West,280,2.0,2.0,32,0.00,FEW,FEW,0.00,WeatherDisplay:10.34,2013-08-24 19:32:00,
2013-08-24 13:37:00,84.6,53.1,29.91,NNE,15,9.0,9.0,34,0.00,FEW,FEW,0.00,WeatherDisplay:10.34,2013-08-24 19:37:00,
2013-08-24 13:42:00,84.5,53.0,29.90,WNW,302,6.0,6.0,34,0.00,FEW,FEW,0.00,WeatherDisplay:10.34,2013-08-24 19:42:00,
2013-08-24 13:47:00,84.8,52.5,29.90,SSW,210,5.0,7.0,33,0.00,FEW,FEW,0.00,WeatherDisplay:10.34,2013-08-24 19:47:00,
2013-08-24 13:52:00,85.3,51.2,29.91,SW,219,7.0,8.0,31,0.00,FEW,FEW,0.00,WeatherDisplay:10.34,2013-08-24 19:52:00,
2013-08-24 13:57:00,85.4,48.6,29.91,SE,129,5.0,7.0,28,0.00,BKN,BKN,0.00,WeatherDisplay:10.34,2013-08-24 19:57:00,
2013-08-24 14:02:00,85.4,52.2,29.90,SSE,151,1.0,2.0,32,0.00,FEW,FEW,0.00,WeatherDisplay:10.34,2013-08-24 20:02:00,
2013-08-24 14:07:00,85.6,48.8,29.90,SSW,193,7.0,8.0,28,0.00,CLR,CLR,0.00,WeatherDisplay:10.34,2013-08-24 20:07:00,
2013-08-24 14:12:00,85.7,49.8,29.90,SW,223,8.0,8.0,29,0.00,FEW,FEW,0.00,WeatherDisplay:10.34,2013-08-24 20:12:00,
2013-08-24 14:17:00,86.0,50.0,29.90,SSW,213,12.0,12.0,29,0.00,FEW,FEW,0.00,WeatherDisplay:10.34,2013-08-24 20:17:00,
2013-08-24 14:22:00,86.1,49.2,29.90,SW,227,10.0,10.0,28,0.00,FEW,FEW,0.00,WeatherDisplay:10.34,2013-08-24 20:22:00,
2013-08-24 14:27:00,86.1,50.1,29.90,SSW,198,3.0,7.0,29,0.00,FEW,FEW,0.00,WeatherDisplay:10.34,2013-08-24 20:27:00,
2013-08-24 14:32:00,86.1,49.2,29.90,SSW,198,7.0,7.0,28,0.00,FEW,FEW,0.00,WeatherDisplay:10.34,2013-08-24 20:32:00,
2013-08-24 14:37:00,86.3,49.4,29.90,SSW,203,1.0,1.0,28,0.00,SCT,SCT,0.00,WeatherDisplay:10.34,2013-08-24 20:37:00,
2013-08-24 14:42:00,86.4,52.2,29.90,West,269,3.0,5.0,31,0.00,CLR,CLR,0.00,WeatherDisplay:10.34,2013-08-24 20:42:00,
2013-08-24 14:47:00,86.3,49.4,29.90,ESE,115,1.0,3.0,28,0.00,OVC,OVC,0.00,WeatherDisplay:10.34,2013-08-24 20:47:00,
2013-08-24 14:52:00,86.1,49.2,29.90,ENE,76,4.0,4.0,28,0.00,OVC,OVC,0.00,WeatherDisplay:10.34,2013-08-24 20:52:00,
2013-08-24 14:57:00,85.9,50.0,29.90,North,355,2.0,2.0,29,0.00,CLR,CLR,0.00,WeatherDisplay:10.34,2013-08-24 20:57:00,
2013-08-24 15:02:00,86.0,51.8,29.90,NE,36,8.0,8.0,31,0.00,CLR,CLR,0.00,WeatherDisplay:10.34,2013-08-24 21:02:00,
2013-08-24 15:07:00,86.2,50.2,29.90,ENE,75,7.0,7.0,29,0.00,FEW,FEW,0.00,WeatherDisplay:10.34,2013-08-24 21:07:00,
2013-08-24 15:12:00,86.3,49.4,29.89,SE,142,1.0,1.0,28,0.00,CLR,CLR,0.00,WeatherDisplay:10.34,2013-08-24 21:12:00,
2013-08-24 15:17:00,85.7,51.6,29.89,NE,34,6.0,7.0,31,0.00,FEW,FEW,0.00,WeatherDisplay:10.34,2013-08-24 21:17:00,
2013-08-24 15:22:00,85.2,50.3,29.89,North,355,7.0,7.0,30,0.00,SCT,SCT,0.00,WeatherDisplay:10.34,2013-08-24 21:22:00,
2013-08-24 15:27:00,84.2,50.3,29.89,ENE,57,7.0,8.0,31,0.00,OVC,OVC,0.00,WeatherDisplay:10.34,2013-08-24 21:27:00,
2013-08-24 15:32:00,83.7,49.0,29.89,NNE,22,2.0,5.0,30,0.00,OVC,OVC,0.00,WeatherDisplay:10.34,2013-08-24 21:32:00,
2013-08-24 15:37:00,83.4,49.6,29.89,WNW,285,4.0,5.0,31,0.00,OVC,OVC,0.00,WeatherDisplay:10.34,2013-08-24 21:37:00,
2013-08-24 15:42:00,82.9,49.2,29.89,WSW,256,2.0,5.0,31,0.00,OVC,OVC,0.00,WeatherDisplay:10.34,2013-08-24 21:42:00,
2013-08-24 15:47:00,82.7,49.8,29.89,WNW,290,15.0,17.0,32,0.00,OVC,OVC,0.00,WeatherDisplay:10.34,2013-08-24 21:47:00,
2013-08-24 15:52:00,80.0,51.4,29.93,SW,219,16.0,22.0,37,0.00,OVC,OVC,0.00,WeatherDisplay:10.34,2013-08-24 21:52:00,
2013-08-24 15:57:00,73.7,53.9,29.93,SW,227,26.0,31.0,50,0.00,OVC,OVC,0.00,WeatherDisplay:10.34,2013-08-24 21:57:00,
2013-08-24 16:02:00,69.4,53.5,29.93,SW,230,18.0,22.0,57,0.00,OVC,OVC,0.00,WeatherDisplay:10.34,2013-08-24 22:02:00,
2013-08-24 16:07:00,67.4,53.0,29.93,SW,220,24.0,24.0,60,0.00,OVC,OVC,0.00,WeatherDisplay:10.34,2013-08-24 22:07:00,
2013-08-24 16:12:00,66.6,53.2,29.94,SSW,206,30.0,30.0,62,0.00,OVC,OVC,0.00,WeatherDisplay:10.34,2013-08-24 22:12:00,
2013-08-24 16:17:00,66.5,53.9,29.94,SSW,204,21.0,22.0,64,0.00,OVC,OVC,0.00,WeatherDisplay:10.34,2013-08-24 22:17:00,
2013-08-24 16:22:00,67.0,53.5,29.94,SSE,168,9.0,10.0,62,0.00,OVC,OVC,0.00,WeatherDisplay:10.34,2013-08-24 22:22:00,
2013-08-24 16:27:00,67.9,55.7,29.94,North,355,6.0,7.0,65,0.00,CLR,CLR,0.00,WeatherDisplay:10.34,2013-08-24 22:27:00,
2013-08-24 16:32:00,69.3,55.3,29.91,NNE,22,0.0,1.0,61,0.00,CLR,CLR,0.00,WeatherDisplay:10.34,2013-08-24 22:32:00,
2013-08-24 16:37:00,71.1,57.9,29.91,SW,227,7.0,10.0,63,0.00,CLR,CLR,0.00,WeatherDisplay:10.34,2013-08-24 22:37:00,
2013-08-24 16:42:00,72.5,56.9,29.92,WSW,244,8.0,9.0,58,0.00,CLR,CLR,0.00,WeatherDisplay:10.34,2013-08-24 22:42:00,
2013-08-24 16:47:00,73.6,54.9,29.92,WSW,239,7.0,7.0,52,0.00,CLR,CLR,0.00,WeatherDisplay:10.34,2013-08-24 22:47:00,
2013-08-24 16:53:00,74.7,54.8,29.92,SW,225,7.0,7.0,50,0.00,CLR,CLR,0.00,WeatherDisplay:10.34,2013-08-24 22:53:00,
2013-08-24 16:58:00,75.7,53.4,29.92,SW,221,6.0,6.0,46,0.00,CLR,CLR,0.00,WeatherDisplay:10.34,2013-08-24 22:58:00,
2013-08-24 17:03:00,76.7,53.1,29.92,WSW,241,5.0,7.0,44,0.00,CLR,CLR,0.00,WeatherDisplay:10.34,2013-08-24 23:03:00,
2013-08-24 17:08:00,77.5,54.5,29.92,WSW,242,6.0,7.0,45,0.00,CLR,CLR,0.00,WeatherDisplay:10.34,2013-08-24 23:08:00,
2013-08-24 17:13:00,78.2,54.5,29.91,SW,232,6.0,7.0,44,0.00,CLR,CLR,0.00,WeatherDisplay:10.34,2013-08-24 23:13:00,
2013-08-24 17:18:00,78.7,53.7,29.91,SSW,210,5.0,7.0,42,0.00,FEW,FEW,0.00,WeatherDisplay:10.34,2013-08-24 23:18:00,
2013-08-24 17:23:00,79.1,53.4,29.90,SSW,207,4.0,5.0,41,0.00,SCT,SCT,0.00,WeatherDisplay:10.34,2013-08-24 23:23:00,
2013-08-24 17:28:00,79.3,52.2,29.90,SW,215,7.0,7.0,39,0.00,FEW,FEW,0.00,WeatherDisplay:10.34,2013-08-24 23:28:00,
2013-08-24 17:33:00,79.4,53.0,29.90,SW,225,4.0,4.0,40,0.00,CLR,CLR,0.00,WeatherDisplay:10.34,2013-08-24 23:33:00,
2013-08-24 17:38:00,79.6,54.5,29.90,SW,219,4.0,5.0,42,0.00,FEW,FEW,0.00,WeatherDisplay:10.34,2013-08-24 23:38:00,
2013-08-24 17:43:00,79.4,51.6,29.91,South,170,5.0,5.0,38,0.00,CLR,CLR,0.00,WeatherDisplay:10.34,2013-08-24 23:43:00,
2013-08-24 17:48:00,79.3,52.2,29.91,SSE,158,5.0,5.0,39,0.00,SCT,SCT,0.00,WeatherDisplay:10.34,2013-08-24 23:48:00,
2013-08-24 17:53:00,79.2,52.8,29.90,SE,126,13.0,13.0,40,0.00,FEW,FEW,0.00,WeatherDisplay:10.34,2013-08-24 23:53:00,
2013-08-24 17:58:00,78.7,54.3,29.90,ESE,104,9.0,9.0,43,0.00,SCT,SCT,0.00,WeatherDisplay:10.34,2013-08-24 23:58:00,
2013-08-24 18:03:00,78.3,55.2,29.90,SE,128,8.0,8.0,45,0.00,FEW,FEW,0.00,WeatherDisplay:10.34,2013-08-25 00:03:00,
2013-08-24 18:08:00,78.0,54.3,29.90,ESE,121,4.0,5.0,44,0.00,SCT,SCT,0.00,WeatherDisplay:10.34,2013-08-25 00:08:00,
2013-08-24 18:13:00,77.8,51.5,29.92,SE,146,5.0,5.0,40,0.00,SCT,SCT,0.00,WeatherDisplay:10.34,2013-08-25 00:13:00,
2013-08-24 18:18:00,77.7,50.8,29.92,SSE,157,5.0,5.0,39,0.00,SCT,SCT,0.00,WeatherDisplay:10.34,2013-08-25 00:18:00,
2013-08-24 18:23:00,77.5,49.2,29.92,SSE,157,4.0,4.0,37,0.00,SCT,SCT,0.00,WeatherDisplay:10.34,2013-08-25 00:23:00,
2013-08-24 18:28:00,77.4,49.1,29.92,SSE,168,5.0,5.0,37,0.00,BKN,BKN,0.00,WeatherDisplay:10.34,2013-08-25 00:28:00,
2013-08-24 18:33:00,77.2,49.6,29.91,SSE,168,1.0,1.0,38,0.00,BKN,BKN,0.00,WeatherDisplay:10.34,2013-08-25 00:33:00,
2013-08-24 18:38:00,77.2,51.7,29.91,SSE,168,0.0,0.0,41,0.00,OVC,OVC,0.00,WeatherDisplay:10.34,2013-08-25 00:38:00,
2013-08-24 18:43:00,77.1,51.6,29.91,SSE,168,0.0,1.0,41,0.00,OVC,OVC,0.00,WeatherDisplay:10.34,2013-08-25 00:43:00,
2013-08-24 18:48:00,76.7,51.2,29.91,SSE,168,3.0,5.0,41,0.00,OVC,OVC,0.00,WeatherDisplay:10.34,2013-08-25 00:48:00,
2013-08-24 18:53:00,76.5,52.3,29.91,SSE,168,1.0,1.0,43,0.00,OVC,OVC,0.00,WeatherDisplay:10.34,2013-08-25 00:53:00,
2013-08-24 18:58:00,76.3,52.8,29.91,SSE,168,0.0,0.0,44,0.00,BKN,BKN,0.00,WeatherDisplay:10.34,2013-08-25 00:58:00,
2013-08-24 19:03:00,76.0,52.5,29.91,SSE,168,0.0,0.0,44,0.00,BKN,BKN,0.00,WeatherDisplay:10.34,2013-08-25 01:03:00,
2013-08-24 19:08:00,75.8,52.9,29.91,SSE,168,0.0,0.0,45,0.00,BKN,BKN,0.00,WeatherDisplay:10.34,2013-08-25 01:08:00,
2013-08-24 19:13:00,75.6,52.8,29.90,SSE,168,0.0,0.0,45,0.00,BKN,BKN,0.00,WeatherDisplay:10.34,2013-08-25 01:13:00,
2013-08-24 19:18:00,75.3,53.1,29.90,ESE,108,2.0,2.0,46,0.00,BKN,BKN,0.00,WeatherDisplay:10.34,2013-08-25 01:18:00,
2013-08-24 19:23:00,74.4,54.5,29.91,NE,48,1.0,2.0,50,0.00,BKN,BKN,0.00,WeatherDisplay:10.34,2013-08-25 01:23:00,
2013-08-24 19:28:00,74.0,54.7,29.91,NE,48,0.0,0.0,51,0.00,BKN,BKN,0.00,WeatherDisplay:10.34,2013-08-25 01:28:00,
2013-08-24 19:33:00,73.8,54.5,29.91,NE,48,0.0,0.0,51,0.00,BKN,BKN,0.00,WeatherDisplay:10.34,2013-08-25 01:33:00,
2013-08-24 19:38:00,73.6,54.9,29.91,NE,48,0.0,0.0,52,0.00,BKN,BKN,0.00,WeatherDisplay:10.34,2013-08-25 01:38:00,
2013-08-24 19:43:00,73.4,55.7,29.91,NE,48,2.0,2.0,54,0.00,BKN,BKN,0.00,WeatherDisplay:10.34,2013-08-25 01:43:00,
2013-08-24 19:48:00,73.0,54.9,29.91,NE,48,0.0,0.0,53,0.00,BKN,BKN,0.00,WeatherDisplay:10.34,2013-08-25 01:48:00,
2013-08-24 19:53:00,72.7,55.1,29.91,NE,48,0.0,0.0,54,0.00,BKN,BKN,0.00,WeatherDisplay:10.34,2013-08-25 01:53:00,
2013-08-24 19:58:00,72.2,54.6,29.91,NE,48,0.0,0.0,54,0.00,FEW,FEW,0.00,WeatherDisplay:10.34,2013-08-25 01:58:00,
2013-08-24 20:03:00,71.6,55.6,29.92,NE,48,0.0,0.0,57,0.00,OVC,OVC,0.00,WeatherDisplay:10.34,2013-08-25 02:03:00,
2013-08-24 20:08:00,71.1,55.6,29.92,NE,48,0.0,0.0,58,0.00,OVC,OVC,0.00,WeatherDisplay:10.34,2013-08-25 02:08:00,
2013-08-24 20:13:00,70.8,55.8,29.92,NNW,344,0.0,2.0,59,0.00,OVC,OVC,0.00,WeatherDisplay:10.34,2013-08-25 02:13:00,
2013-08-24 20:18:00,70.4,55.4,29.92,NNW,344,0.0,1.0,59,0.00,OVC,OVC,0.00,WeatherDisplay:10.34,2013-08-25 02:18:00,
2013-08-24 20:23:00,70.1,55.1,29.92,NNW,344,0.0,0.0,59,0.00,OVC,OVC,0.00,WeatherDisplay:10.34,2013-08-25 02:23:00,
2013-08-24 20:28:00,69.7,54.3,29.92,NNW,344,0.0,0.0,58,0.00,OVC,OVC,0.00,WeatherDisplay:10.34,2013-08-25 02:28:00,
2013-08-24 20:33:00,69.2,52.8,29.93,NNW,344,0.0,0.0,56,0.00,OVC,OVC,0.00,WeatherDisplay:10.34,2013-08-25 02:33:00,
2013-08-24 20:38:00,68.8,54.3,29.93,NNW,345,1.0,2.0,60,0.00,OVC,OVC,0.00,WeatherDisplay:10.34,2013-08-25 02:38:00,
2013-08-24 20:43:00,68.3,53.9,29.93,NNW,345,2.0,2.0,60,0.00,OVC,OVC,0.00,WeatherDisplay:10.34,2013-08-25 02:43:00,
2013-08-24 20:48:00,67.9,53.5,29.93,NNW,345,0.0,0.0,60,0.00,OVC,OVC,0.00,WeatherDisplay:10.34,2013-08-25 02:48:00,
2013-08-24 20:53:00,67.4,53.0,29.94,NNW,345,0.0,0.0,60,0.00,OVC,OVC,0.00,WeatherDisplay:10.34,2013-08-25 02:53:00,
2013-08-24 20:58:00,67.0,52.7,29.94,NNW,345,0.0,0.0,60,0.00,OVC,OVC,0.00,WeatherDisplay:10.34,2013-08-25 02:58:00,
2013-08-24 21:03:00,66.7,52.8,29.94,NNW,345,0.0,1.0,61,0.00,CLR,CLR,0.00,WeatherDisplay:10.34,2013-08-25 03:03:00,
2013-08-24 21:08:00,66.1,52.3,29.94,NNW,345,3.0,3.0,61,0.00,CLR,CLR,0.00,WeatherDisplay:10.34,2013-08-25 03:08:00,
2013-08-24 21:13:00,65.6,52.2,29.94,South,178,3.0,3.0,62,0.00,CLR,CLR,0.00,WeatherDisplay:10.34,2013-08-25 03:13:00,
2013-08-24 21:18:00,65.0,52.5,29.94,South,178,3.0,3.0,64,0.00,CLR,CLR,0.00,WeatherDisplay:10.34,2013-08-25 03:18:00,
2013-08-24 21:23:00,64.6,52.1,29.94,South,178,3.0,3.0,64,0.00,CLR,CLR,0.00,WeatherDisplay:10.34,2013-08-25 03:23:00,
2013-08-24 21:28:00,64.3,51.9,29.94,SSW,200,0.0,0.0,64,0.00,CLR,CLR,0.00,WeatherDisplay:10.34,2013-08-25 03:28:00,
2013-08-24 21:33:00,64.0,50.7,29.94,WSW,240,3.0,3.0,62,0.00,CLR,CLR,0.00,WeatherDisplay:10.34,2013-08-25 03:33:00,
2013-08-24 21:38:00,63.9,51.5,29.94,SW,225,7.0,8.0,64,0.00,CLR,CLR,0.00,WeatherDisplay:10.34,2013-08-25 03:38:00,
2013-08-24 21:43:00,64.2,50.9,29.96,SSW,213,17.0,17.0,62,0.00,CLR,CLR,0.00,WeatherDisplay:10.34,2013-08-25 03:43:00,
2013-08-24 21:48:00,65.0,52.9,29.97,SSW,213,14.0,14.0,65,0.00,CLR,CLR,0.00,WeatherDisplay:10.34,2013-08-25 03:48:00,
2013-08-24 21:53:00,65.4,52.5,29.98,SSW,207,10.0,12.0,63,0.00,CLR,CLR,0.00,WeatherDisplay:10.34,2013-08-25 03:53:00,
2013-08-24 21:58:00,65.9,52.5,29.98,SSW,213,13.0,13.0,62,0.00,CLR,CLR,0.00,WeatherDisplay:10.34,2013-08-25 03:58:00,
2013-08-24 22:01:00,67.2,50.0,29.98,SSW,212,26.0,26.0,54,0.00,CLR,CLR,0.00,WeatherDisplay:10.34,2013-08-25 04:01:00,
2013-08-24 22:02:00,68.0,49.7,29.98,SSW,196,23.0,23.0,52,0.00,,,0.00,WeatherDisplay:10.34,2013-08-25 04:02:00,
2013-08-24 22:03:00,68.5,50.2,29.98,SSW,210,19.0,19.0,52,0.00,,,0.00,WeatherDisplay:10.34,2013-08-25 04:03:00,
2013-08-24 22:08:00,69.8,45.0,29.98,WSW,241,21.0,22.0,41,0.00,,,0.00,WeatherDisplay:10.34,2013-08-25 04:08:00,
2013-08-24 22:12:00,71.8,41.1,29.94,West,261,26.0,29.0,33,0.00,,,0.00,WeatherDisplay:10.34,2013-08-25 04:12:00,
2013-08-24 22:17:00,73.0,47.9,29.94,South,179,21.0,21.0,41,0.00,,,0.00,WeatherDisplay:10.34,2013-08-25 04:17:00,
2013-08-24 22:22:00,71.4,48.9,29.97,South,172,4.0,5.0,45,0.00,,,0.00,WeatherDisplay:10.34,2013-08-25 04:22:00,
2013-08-24 22:27:00,70.5,48.7,29.97,South,186,10.0,10.0,46,0.00,,,0.00,WeatherDisplay:10.34,2013-08-25 04:27:00,
2013-08-24 22:32:00,69.9,49.3,29.97,SSW,194,6.0,7.0,48,0.00,,,0.00,WeatherDisplay:10.34,2013-08-25 04:32:00,
2013-08-24 22:37:00,69.2,49.2,29.97,South,176,7.0,7.0,49,0.00,,,0.00,WeatherDisplay:10.34,2013-08-25 04:37:00,
2013-08-24 22:42:00,68.7,49.3,29.96,SSE,168,5.0,5.0,50,0.00,,,0.00,WeatherDisplay:10.34,2013-08-25 04:42:00,
2013-08-24 22:47:00,68.4,50.1,29.96,SW,219,8.0,9.0,52,0.00,,,0.00,WeatherDisplay:10.34,2013-08-25 04:47:00,
2013-08-24 22:52:00,68.0,49.7,29.97,SSW,205,9.0,9.0,52,0.00,,,0.00,WeatherDisplay:10.34,2013-08-25 04:52:00,
2013-08-24 22:57:00,67.7,50.5,29.97,SW,214,7.0,10.0,54,0.00,,,0.00,WeatherDisplay:10.34,2013-08-25 04:57:00,
2013-08-24 23:02:00,67.3,50.6,29.97,SW,223,5.0,5.0,55,0.00,,,0.00,WeatherDisplay:10.34,2013-08-25 05:02:00,
2013-08-24 23:07:00,67.1,50.4,29.97,SW,228,6.0,7.0,55,0.00,,,0.00,WeatherDisplay:10.34,2013-08-25 05:07:00,
2013-08-24 23:12:00,67.0,49.8,29.98,SW,230,5.0,5.0,54,0.00,,,0.00,WeatherDisplay:10.34,2013-08-25 05:12:00,
2013-08-24 23:17:00,67.0,50.3,29.98,SW,233,6.0,7.0,55,0.00,,,0.00,WeatherDisplay:10.34,2013-08-25 05:17:00,
2013-08-24 23:22:00,66.9,50.2,29.98,SW,229,5.0,5.0,55,0.00,,,0.00,WeatherDisplay:10.34,2013-08-25 05:22:00,
2013-08-24 23:27:00,66.9,49.2,29.98,WSW,238,9.0,9.0,53,0.00,,,0.00,WeatherDisplay:10.34,2013-08-25 05:27:00,
2013-08-24 23:32:00,67.0,49.3,29.98,WSW,240,9.0,10.0,53,0.00,,,0.00,WeatherDisplay:10.34,2013-08-25 05:32:00,
2013-08-24 23:37:00,67.1,49.4,29.98,SW,227,3.0,3.0,53,0.00,,,0.00,WeatherDisplay:10.34,2013-08-25 05:37:00,
2013-08-24 23:42:00,67.1,49.9,29.98,SSW,210,6.0,7.0,54,0.00,,,0.00,WeatherDisplay:10.34,2013-08-25 05:42:00,
2013-08-24 23:47:00,66.8,49.6,29.97,SSW,211,7.0,7.0,54,0.00,,,0.00,WeatherDisplay:10.34,2013-08-25 05:47:00,
2013-08-24 23:52:00,66.5,49.3,29.98,SSW,207,7.0,7.0,54,0.00,,,0.00,WeatherDisplay:10.34,2013-08-25 05:52:00,
2013-08-24 23:57:00,66.2,48.6,29.98,SW,215,10.0,10.0,53,0.00,,,0.00,WeatherDisplay:10.34,2013-08-25 05:57:00,